Welcome to the New NWS' Forecast!
Most changes are behind the scenes, but click here for differences you might notice.

Regional Weather Roundup (RWR)

Issued by Gray - Portland, ME (GYX)

                            
083 
ASUS41 KGYX 180910
RWRGYX
WEATHER ROUNDUP FOR MAINE AND NEW HAMPSHIRE
NATIONAL WEATHER SERVICE GRAY ME
500 AM EDT WED JUL 18 2018

MEZ002-005-006-010-012-015-018-020-021-024-026-027-029-181000-
MAINE
  
CITY           SKY/WX    TMP DP  RH WIND       PRES   REMARKS
PORTLAND       CLOUDY    65  65 100 W6        29.79S                  
SANFORD        FAIR      65  65 100 CALM      29.81R                  
BAR HARBOR     CLOUDY    64  64 100 SW3       29.75R FOG              
WISCASSET      FAIR      66  65  96 CALM      29.78S                  
ROCKLAND       MOCLDY    65  64  97 W5        29.75F                  
FRYEBURG       FAIR      64  64 100 CALM      29.82R                  
LEWISTONAUBURN FAIR      65  63  93 NW6       29.79S                  
AUGUSTA        FAIR      65  64  97 NW6       29.77F                  
WATERVILLE     FAIR      65  62  90 N5        29.75S                  
BANGOR         MOCLDY    67  65  93 W8        29.75R                  
GREENVILLE       N/A     58  56  93 NW13      29.77R                  
MILLINOCKET    MOCLDY    66  63  90 W5        29.75R                  
HOULTON        FAIR      65  64  97 NW6       29.69R                  
PRESQUE ISLE   FAIR      64  61  90 NW9       29.73R                  
FRENCHVILLE    CLOUDY    61  56  83 NW14      29.74R                  
CARIBOU        MOCLDY    63  59  87 NW10      29.71R                  
$$

NHZ002-005-008-009-011-012-014-181000-
NEW HAMPSHIRE
  
CITY           SKY/WX    TMP DP  RH WIND       PRES   REMARKS
PORTSMOUTH     FOG       68  68 100 CALM      29.78S VSB 1/2          
ROCHESTER      FAIR      68  68 100 CALM      29.80R                  
NASHUA         CLOUDY    69  67  93 NW10      29.82R                  
MANCHESTER     MOCLDY    69  64  84 NW9       29.80R                  
CONCORD        FAIR      66  62  87 NW9       29.83R                  
PLYMOUTH         N/A     61  58  89 CALM      29.85R                  
BERLIN         FAIR      57  55  93 N5        29.87R                  
WHITEFIELD     FOG       56  55  97 CALM      29.88R VSB 1/2          
JAFFREY        FAIR      65  64  97 CALM      29.87R                  
KEENE          FAIR      64  63  96 N5        29.86R                  
LEBANON        FAIR      62  58  86 N3        29.87R                  
MT WASHINGTON  FOG       43  43 100 NW47G53     N/A  VSB 1/16         
$$

VTZ005-007-008-181000-
VERMONT
  
CITY           SKY/WX    TMP DP  RH WIND       PRES   REMARKS
ST JOHNSBURY     N/A     58  55  90 MISG      29.87R                  
MONTPELIER     FAIR      58  54  86 NW5       29.94R                  
BURLINGTON     MOCLDY    65  52  62 N9        29.92R                  
$$

MAZ007-012-024-CTZ003-RIZ002-NYZ038-NYZ072-181000-
SOUTHERN NEW ENGLAND AND NY
  
CITY           SKY/WX    TMP DP  RH WIND       PRES   REMARKS
BOSTON         CLOUDY    73  69  87 NW9       29.80R                  
NANTUCKET      LGT RAIN  68  68 100 S7        29.78S                  
PROVIDENCE     MOCLDY    71  69  93 NW5       29.80R                  
HARTFORD       MOCLDY    67  64  90 N6        29.82R                  
ALBANY         MOCLDY    65  58  78 N5        29.89R                  
NEW YORK CITY  MOCLDY    72  60  66 NW8       29.83R                  
$$

ANZ081-ANZ082-ANZ150-NHZ014-MEZ023>029-181000-
COASTAL MARINE OBSERVATIONS
  
STATION/POSITION TIME  TEMP    WIND        PRES    WAVE
                       AIR SEA DIR/SP/G            HT/PER
                 (UTC) (F)     (DEG/KT/KT) (MB)    (FT/S)
MOUNT DESERT ROC 0900   60     240/ 17/ 18 1007.5R
MATINICUS ROCK   0800   60     250/ 14/ 14 1007.5R
ISLE OF SHOALS   0800   69      CALM  /  1 1007.7F
JEFFREYS LEDGE   0836      68                N/A     2/ 5
$$

.............KEY..............
   WCI - WIND CHILL
   TC  - TEMPERATURE IN CELSIUS
   VSB - VISIBILITY IN MILES
   HX  - HEAT INDEX
   FAIR- INDICATES FEW OR NO CLOUDS BELOW 12,000 FT, WITH NO 
         SIGNIFICANT WEATHER AND/OR OBSTRUCTIONS TO VISIBILITY.